Preview of NWS' New Version of Forecast
This preview is not operational and should not be used for support decisions.

Regional Weather Roundup (RWR)

Issued by National Weather Service (NWS)

                            
000
ASUS46 KPQR 231110
RWROR 

OREGON REGIONAL WEATHER ROUNDUP
NATIONAL WEATHER SERVICE PORTLAND OR
400 AM PDT FRI AUG 23 2019

NOTE: "FAIR" INDICATES FEW OR NO CLOUDS BELOW 12,000 FEET WITH
NO SIGNIFICANT WEATHER AND/OR OBSTRUCTIONS TO VISIBILITY.

ORZ001>013-231200-
NORTHWEST OREGON

  
CITY           SKY/WX    TMP DP  RH WIND       PRES   REMARKS
ASTORIA        CLEAR     50  49  96 E3        29.99F                  
TILLAMOOK      CLOUDY    48  46  93 CALM      30.01S FOG              
NEWPORT        CLEAR     50  50 100 CALM      30.00F                  
FLORENCE       FAIR      50  50 100 CALM      29.96S                  
PORTLAND       PTCLDY    58  54  86 NW7       29.98S                  
VANCOUVER WA   CLEAR     57  53  86 CALM      29.97S                  
SCAPPOOSE      CLEAR     56  52  86 N3        29.97S                  
HILLSBORO      CLEAR     52  49  89 CALM      29.98S                  
AURORA         CLEAR     55  51  86 CALM      29.98S                  
MCMINNVILLE    CLEAR     54  51  90 CALM      29.97S                  
SALEM          CLEAR     53  50  89 CALM      29.97S                  
CORVALLIS      CLEAR     55  52  89 NW7       29.97F                  
EUGENE         CLEAR     55  50  83 N8        29.96F                  
CRESWELL       CLEAR     50  50 100 CALM      29.95S                  
$$

ORZ021-028-231200-
SOUTHWEST OREGON

  
CITY           SKY/WX    TMP DP  RH WIND       PRES   REMARKS
NORTH BEND     CLEAR     53  52  96 CALM      29.96S                  
BROOKINGS      CLEAR     56  53  90 CALM      29.82S                  
ROSEBURG       CLEAR     55  51  86 CALM      29.94F                  
SEXTON SUMMIT  CLEAR     58  53  84 E3        29.99S                  
GRANTS PASS    FAIR      57  54  88 CALM      29.96S                  
MEDFORD        CLEAR     60  55  83 CALM      29.93S                  
$$

ORZ014>016-041-231200-
COLUMBIA GORGE

  
CITY           SKY/WX    TMP DP  RH WIND       PRES   REMARKS
TROUTDALE      CLEAR     53  50  89 CALM      29.98S                  
HOOD RIVER     CLEAR     50  45  81 S3        29.97S                  
THE DALLES     CLEAR     56  47  71 CALM      29.93F                  
$$

ORZ029>031-041-044-049-050-061>064-502-503-505>511-231200-
EASTERN OREGON

  
CITY           SKY/WX    TMP DP  RH WIND       PRES   REMARKS
MADRAS         CLEAR     45  43  93 CALM      30.01S                  
REDMOND        CLEAR     44  40  85 SE3       30.01S                  
BEND           CLEAR     50  41  71 S6        30.02R                  
PRINEVILLE     CLEAR     45  43  93 CALM      30.02S                  
KLAMATH FALLS  CLEAR     54  35  48 NE6       30.02S                  
LAKEVIEW       CLEAR     51  35  54 N9        30.05F                  
HERMISTON      CLEAR     53  47  79 S5        29.93S                  
PENDLETON      CLEAR     56  45  66 S8        29.95S                  
JOHN DAY       CLEAR     51  41  69 SE10      30.04R                  
MEACHAM        CLEAR     39  36  89 CALM      30.03F                  
LA GRANDE      CLEAR     50  42  74 E7        30.02R                  
BAKER CITY     CLEAR     44  40  85 CALM      30.03S                  
BURNS          PTCLDY    46  36  68 W8        30.05R                  
ROME             N/A     50  33  52 SE7       30.02S                  
ONTARIO        CLEAR     57  45  64 W5        29.96R                  
$$